Station Historical Data
 
Daily Summary for February 20, 2019 Units:  Metric    English   Both
« Previous Day
Next Day »
Daily Weekly Monthly Yearly Custom
  Current: High: Low: Average:
Temperature: 16.6 °C 16.6 °C 9.1 °C 10.6 °C
Dew Point: 8.3 °C 8.5 °C 6.4 °C 7.4 °C
Humidity: 58% 87% 58% 81%
Wind Speed: 4.8km/h 11.3km/h 1.6km/h 5.3km/h
Wind Gust: 14.5km/h 19.3km/h - -
WindNNE - - West
Pressure: 1023.7 hPa 1023.8 hPa 1020.9 hPa -
Precipitation: 0.0 mm      
Historical Graphs
 
 
Tabular Data for February 20, 2019
Time Temperature Dew Point Pressure Wind Wind Speed Wind Gust Humidity Rainfall Rate (Hourly) solar Conditions
00:00 10.5 °C 8.3 °C 1021.3 hPa NNW 3.2 km/h 8.0 km/h 86% 0.0 mm 0.00 W/m2 CLR
00:05 10.5 °C 8.3 °C 1021.3 hPa NNW 4.8 km/h 9.7 km/h 86% 0.0 mm 0.00 W/m2 CLR
00:10 10.4 °C 8.2 °C 1021.3 hPa NNW 4.8 km/h 9.7 km/h 86% 0.0 mm 0.00 W/m2 CLR
00:15 10.4 °C 8.2 °C 1021.3 hPa NNW 3.2 km/h 9.7 km/h 86% 0.0 mm 0.00 W/m2 CLR
00:20 10.4 °C 8.2 °C 1021.3 hPa NNW 8.0 km/h 16.1 km/h 86% 0.0 mm 0.00 W/m2 CLR
00:25 10.4 °C 8.2 °C 1021.3 hPa NW 1.6 km/h 8.0 km/h 86% 0.0 mm 0.00 W/m2 CLR
00:30 10.3 °C 8.1 °C 1021.2 hPa NNW 3.2 km/h 9.7 km/h 86% 0.0 mm 0.00 W/m2 CLR
00:35 10.3 °C 8.1 °C 1021.3 hPa NNW 3.2 km/h 11.3 km/h 86% 0.0 mm 0.00 W/m2 CLR
00:45 10.3 °C 8.1 °C 1021.2 hPa NW 3.2 km/h 9.7 km/h 86% 0.0 mm 0.00 W/m2 CLR
00:50 10.3 °C 8.1 °C 1021.3 hPa NW 3.2 km/h 8.0 km/h 86% 0.0 mm 0.00 W/m2 CLR
00:55 10.3 °C 8.1 °C 1021.3 hPa NW 3.2 km/h 14.5 km/h 86% 0.0 mm 0.00 W/m2 CLR
01:00 10.3 °C 8.1 °C 1021.4 hPa NNW 4.8 km/h 16.1 km/h 86% 0.0 mm 0.00 W/m2 CLR
01:05 10.3 °C 8.1 °C 1021.4 hPa NW 3.2 km/h 9.7 km/h 86% 0.0 mm 0.00 W/m2 CLR
01:10 10.3 °C 8.1 °C 1021.3 hPa NW 4.8 km/h 12.9 km/h 86% 0.0 mm 0.00 W/m2 CLR
01:15 10.3 °C 8.1 °C 1021.4 hPa NNW 8.0 km/h 14.5 km/h 86% 0.0 mm 0.00 W/m2 CLR
01:25 10.2 °C 8.0 °C 1021.4 hPa NNW 4.8 km/h 9.7 km/h 86% 0.0 mm 0.00 W/m2 CLR
01:30 10.2 °C 7.9 °C 1021.3 hPa NNW 4.8 km/h 8.0 km/h 86% 0.0 mm 0.00 W/m2 CLR
01:35 10.1 °C 7.9 °C 1021.3 hPa NNW 4.8 km/h 9.7 km/h 86% 0.0 mm 0.00 W/m2 CLR
01:40 10.1 °C 7.9 °C 1021.3 hPa NNW 4.8 km/h 6.4 km/h 86% 0.0 mm 0.00 W/m2 CLR
01:45 10.1 °C 7.8 °C 1021.3 hPa NNW 4.8 km/h 8.0 km/h 86% 0.0 mm 0.00 W/m2 CLR
01:50 10.0 °C 7.8 °C 1021.3 hPa NNW 4.8 km/h 6.4 km/h 86% 0.0 mm 0.00 W/m2 CLR
01:55 10.0 °C 7.7 °C 1021.3 hPa NW 4.8 km/h 14.5 km/h 86% 0.0 mm 0.00 W/m2 CLR
02:00 9.9 °C 7.7 °C 1021.4 hPa NNW 4.8 km/h 9.7 km/h 86% 0.0 mm 0.00 W/m2 CLR
02:05 9.9 °C 7.7 °C 1021.4 hPa NW 4.8 km/h 8.0 km/h 86% 0.0 mm 0.00 W/m2 CLR
02:10 9.9 °C 7.7 °C 1021.4 hPa NW 3.2 km/h 9.7 km/h 86% 0.0 mm 0.00 W/m2 CLR
02:15 9.9 °C 7.7 °C 1021.4 hPa WNW 3.2 km/h 12.9 km/h 86% 0.0 mm 0.00 W/m2 CLR
02:20 9.9 °C 7.7 °C 1021.4 hPa WNW 3.2 km/h 6.4 km/h 86% 0.0 mm 0.00 W/m2 CLR
02:25 9.9 °C 7.7 °C 1021.3 hPa NW 3.2 km/h 8.0 km/h 86% 0.0 mm 0.00 W/m2 CLR
02:30 9.9 °C 7.7 °C 1021.3 hPa NNW 3.2 km/h 9.7 km/h 86% 0.0 mm 0.00 W/m2 CLR
02:35 9.9 °C 7.7 °C 1021.4 hPa NNW 3.2 km/h 9.7 km/h 86% 0.0 mm 0.00 W/m2 CLR
02:40 9.8 °C 7.6 °C 1021.3 hPa NNW 3.2 km/h 11.3 km/h 86% 0.0 mm 0.00 W/m2 CLR
02:45 9.8 °C 7.6 °C 1021.4 hPa NW 3.2 km/h 9.7 km/h 86% 0.0 mm 0.00 W/m2 CLR
02:50 9.8 °C 7.6 °C 1021.4 hPa NW 3.2 km/h 9.7 km/h 86% 0.0 mm 0.00 W/m2 CLR
02:55 9.7 °C 7.5 °C 1021.4 hPa NW 3.2 km/h 12.9 km/h 86% 0.0 mm 0.00 W/m2 CLR
03:00 9.7 °C 7.3 °C 1021.3 hPa NW 4.8 km/h 8.0 km/h 85% 0.0 mm 0.00 W/m2 CLR
03:05 9.7 °C 7.3 °C 1021.3 hPa NNW 4.8 km/h 8.0 km/h 85% 0.0 mm 0.00 W/m2 CLR
03:10 9.6 °C 7.2 °C 1021.3 hPa NNW 4.8 km/h 8.0 km/h 85% 0.0 mm 0.00 W/m2 CLR
03:15 9.5 °C 7.1 °C 1021.3 hPa NNW 4.8 km/h 8.0 km/h 85% 0.0 mm 0.00 W/m2 CLR
03:20 9.4 °C 7.1 °C 1021.3 hPa NNW 3.2 km/h 6.4 km/h 85% 0.0 mm 0.00 W/m2 CLR
03:25 9.4 °C 7.1 °C 1021.3 hPa NNW 4.8 km/h 9.7 km/h 85% 0.0 mm 0.00 W/m2 CLR
03:30 9.4 °C 7.1 °C 1021.2 hPa NNW 4.8 km/h 8.0 km/h 85% 0.0 mm 0.00 W/m2 CLR
03:35 9.5 °C 7.3 °C 1021.3 hPa NNW 4.8 km/h 16.1 km/h 86% 0.0 mm 0.00 W/m2 CLR
03:40 9.5 °C 7.3 °C 1021.3 hPa NNW 8.0 km/h 14.5 km/h 86% 0.0 mm 0.00 W/m2 CLR
03:45 9.5 °C 7.3 °C 1021.1 hPa NNW 4.8 km/h 8.0 km/h 86% 0.0 mm 0.00 W/m2 CLR
03:50 9.5 °C 7.3 °C 1021.2 hPa North 3.2 km/h 9.7 km/h 86% 0.0 mm 0.00 W/m2 CLR
03:55 9.4 °C 7.2 °C 1021.1 hPa North 8.0 km/h 14.5 km/h 86% 0.0 mm 0.00 W/m2 CLR
04:00 9.3 °C 7.1 °C 1021.1 hPa North 9.7 km/h 14.5 km/h 86% 0.0 mm 0.00 W/m2 CLR
04:05 9.3 °C 7.1 °C 1021.1 hPa NNW 8.0 km/h 12.9 km/h 86% 0.0 mm 0.00 W/m2 CLR
04:10 9.4 °C 7.2 °C 1021.1 hPa NNW 4.8 km/h 9.7 km/h 86% 0.0 mm 0.00 W/m2 CLR
04:15 9.4 °C 7.2 °C 1021.1 hPa NNW 4.8 km/h 11.3 km/h 86% 0.0 mm 0.00 W/m2 CLR
04:20 9.3 °C 7.1 °C 1021.0 hPa North 8.0 km/h 9.7 km/h 86% 0.0 mm 0.00 W/m2 CLR
04:25 9.2 °C 6.9 °C 1021.1 hPa NNW 4.8 km/h 12.9 km/h 86% 0.0 mm 0.00 W/m2 CLR
04:30 9.2 °C 6.9 °C 1021.0 hPa North 4.8 km/h 9.7 km/h 86% 0.0 mm 0.00 W/m2 CLR
04:35 9.1 °C 6.9 °C 1021.0 hPa North 4.8 km/h 11.3 km/h 86% 0.0 mm 0.00 W/m2 CLR
04:40 9.1 °C 6.9 °C 1021.0 hPa NNW 1.6 km/h 8.0 km/h 86% 0.0 mm 0.00 W/m2 CLR
04:45 9.2 °C 6.9 °C 1021.0 hPa North 3.2 km/h 8.0 km/h 86% 0.0 mm 0.00 W/m2 CLR
04:50 9.1 °C 6.9 °C 1021.0 hPa NNE 3.2 km/h 8.0 km/h 86% 0.0 mm 0.00 W/m2 CLR
04:55 9.1 °C 6.8 °C 1020.9 hPa NNE 4.8 km/h 9.7 km/h 86% 0.0 mm 0.00 W/m2 CLR
05:00 9.1 °C 6.8 °C 1020.9 hPa NNW 4.8 km/h 14.5 km/h 86% 0.0 mm 0.00 W/m2 CLR
05:05 9.1 °C 6.8 °C 1020.9 hPa NNW 4.8 km/h 14.5 km/h 86% 0.0 mm 0.00 W/m2 CLR
05:10 9.1 °C 6.9 °C 1020.9 hPa NNW 4.8 km/h 14.5 km/h 86% 0.0 mm 0.00 W/m2 CLR
05:15 9.1 °C 6.8 °C 1020.9 hPa North 4.8 km/h 11.3 km/h 86% 0.0 mm 0.00 W/m2 CLR
05:20 9.1 °C 7.1 °C 1020.9 hPa NNW 4.8 km/h 14.5 km/h 87% 0.0 mm 0.00 W/m2 CLR
05:25 9.2 °C 7.1 °C 1020.9 hPa NNW 8.0 km/h 12.9 km/h 87% 0.0 mm 0.00 W/m2 CLR
05:30 9.3 °C 7.1 °C 1020.9 hPa NNW 3.2 km/h 12.9 km/h 86% 0.0 mm 0.00 W/m2 CLR
05:35 9.3 °C 7.1 °C 1020.9 hPa NW 8.0 km/h 12.9 km/h 86% 0.0 mm 0.00 W/m2 CLR
05:40 9.3 °C 7.1 °C 1020.9 hPa WNW 4.8 km/h 12.9 km/h 86% 0.0 mm 0.00 W/m2 CLR
05:45 9.3 °C 7.1 °C 1020.9 hPa NW 4.8 km/h 9.7 km/h 86% 0.0 mm 0.00 W/m2 CLR
05:50 9.4 °C 7.2 °C 1021.0 hPa NNW 4.8 km/h 12.9 km/h 86% 0.0 mm 0.00 W/m2 CLR
05:55 9.4 °C 7.2 °C 1021.0 hPa North 4.8 km/h 11.3 km/h 86% 0.0 mm 0.00 W/m2 CLR
06:00 9.4 °C 7.1 °C 1021.0 hPa NNW 3.2 km/h 8.0 km/h 86% 0.0 mm 0.00 W/m2 CLR
06:05 9.3 °C 7.1 °C 1021.0 hPa NNW 1.6 km/h 8.0 km/h 86% 0.0 mm 0.00 W/m2 CLR
06:10 9.3 °C 6.9 °C 1021.0 hPa NW 3.2 km/h 6.4 km/h 85% 0.0 mm 0.00 W/m2 CLR
06:15 9.3 °C 6.9 °C 1021.0 hPa NNW 4.8 km/h 12.9 km/h 85% 0.0 mm 0.00 W/m2 CLR
06:20 9.4 °C 7.0 °C 1021.1 hPa NNW 4.8 km/h 12.9 km/h 85% 0.0 mm 0.00 W/m2 CLR
06:25 9.4 °C 7.0 °C 1021.1 hPa NNW 4.8 km/h 11.3 km/h 85% 0.0 mm 0.00 W/m2 CLR
06:30 9.4 °C 7.0 °C 1021.1 hPa NNW 4.8 km/h 14.5 km/h 85% 0.0 mm 0.00 W/m2 CLR
06:35 9.4 °C 6.9 °C 1021.1 hPa NNW 4.8 km/h 12.9 km/h 84% 0.0 mm 0.00 W/m2 CLR
06:40 9.4 °C 6.9 °C 1021.2 hPa NW 3.2 km/h 8.0 km/h 84% 0.0 mm 0.00 W/m2 CLR
06:45 9.4 °C 6.7 °C 1021.1 hPa NW 4.8 km/h 14.5 km/h 83% 0.0 mm 0.00 W/m2 CLR
06:50 9.4 °C 6.7 °C 1021.1 hPa NW 4.8 km/h 9.7 km/h 83% 0.0 mm 0.00 W/m2 CLR
06:55 9.4 °C 6.7 °C 1021.1 hPa NNW 4.8 km/h 8.0 km/h 83% 0.0 mm 0.00 W/m2 CLR
07:00 9.4 °C 6.7 °C 1021.1 hPa NW 3.2 km/h 8.0 km/h 83% 0.0 mm 0.00 W/m2 CLR
07:05 9.4 °C 6.7 °C 1021.1 hPa NW 3.2 km/h 8.0 km/h 83% 0.0 mm 0.00 W/m2 CLR
07:10 9.4 °C 6.7 °C 1021.2 hPa NW 3.2 km/h 6.4 km/h 83% 0.0 mm 0.00 W/m2 CLR
07:15 9.4 °C 6.7 °C 1021.2 hPa NW 3.2 km/h 12.9 km/h 83% 0.0 mm 0.00 W/m2 OVC
07:20 9.4 °C 6.7 °C 1021.3 hPa NW 4.8 km/h 11.3 km/h 83% 0.0 mm 0.00 W/m2 OVC
07:25 9.4 °C 6.7 °C 1021.3 hPa NNW 3.2 km/h 11.3 km/h 83% 0.0 mm 0.00 W/m2 OVC
07:30 9.4 °C 6.7 °C 1021.4 hPa NNW 3.2 km/h 12.9 km/h 83% 0.0 mm 0.00 W/m2 OVC
07:35 9.4 °C 6.7 °C 1021.5 hPa NNW 9.7 km/h 14.5 km/h 83% 0.0 mm 0.00 W/m2 OVC
07:40 9.4 °C 6.4 °C 1021.6 hPa NW 4.8 km/h 12.9 km/h 82% 0.0 mm 0.00 W/m2 OVC
07:45 9.4 °C 6.5 °C 1021.7 hPa NNW 8.0 km/h 9.7 km/h 82% 0.0 mm 6.00 W/m2 OVC
07:50 9.4 °C 6.4 °C 1021.7 hPa NNW 4.8 km/h 12.9 km/h 82% 0.0 mm 8.40 W/m2 OVC
07:55 9.3 °C 6.4 °C 1021.8 hPa NNW 8.0 km/h 12.9 km/h 82% 0.0 mm 14.40 W/m2 CLR
08:00 9.3 °C 6.4 °C 1021.8 hPa NNW 8.0 km/h 12.9 km/h 82% 0.0 mm 19.20 W/m2 CLR
08:05 9.4 °C 6.4 °C 1021.9 hPa NNW 8.0 km/h 12.9 km/h 82% 0.0 mm 25.20 W/m2 CLR
08:10 9.4 °C 6.4 °C 1022.0 hPa North 9.7 km/h 14.5 km/h 82% 0.0 mm 31.20 W/m2 CLR
08:15 9.4 °C 6.5 °C 1022.1 hPa North 9.7 km/h 16.1 km/h 82% 0.0 mm 38.40 W/m2 CLR
08:20 9.4 °C 6.5 °C 1022.2 hPa North 8.0 km/h 16.1 km/h 82% 0.0 mm 48.00 W/m2 CLR
08:25 9.5 °C 6.6 °C 1022.2 hPa North 8.0 km/h 14.5 km/h 82% 0.0 mm 63.60 W/m2 CLR
08:30 9.6 °C 6.7 °C 1022.2 hPa North 8.0 km/h 12.9 km/h 82% 0.0 mm 80.40 W/m2 CLR
08:35 9.7 °C 6.8 °C 1022.3 hPa NNW 9.7 km/h 14.5 km/h 82% 0.0 mm 97.20 W/m2 CLR
08:40 9.8 °C 6.7 °C 1022.4 hPa NNW 9.7 km/h 16.1 km/h 81% 0.0 mm 116.40 W/m2 CLR
08:45 9.9 °C 6.8 °C 1022.4 hPa North 4.8 km/h 12.9 km/h 81% 0.0 mm 136.80 W/m2 CLR
08:50 10.1 °C 6.9 °C 1022.5 hPa NNW 3.2 km/h 8.0 km/h 81% 0.0 mm 160.80 W/m2 CLR
08:55 10.2 °C 7.1 °C 1022.5 hPa NNW 3.2 km/h 12.9 km/h 81% 0.0 mm 177.60 W/m2 CLR
09:00 10.5 °C 7.3 °C 1022.6 hPa NW 3.2 km/h 14.5 km/h 81% 0.0 mm 200.40 W/m2 CLR
09:05 10.7 °C 7.4 °C 1022.7 hPa NNW 1.6 km/h 9.7 km/h 80% 0.0 mm 225.60 W/m2 CLR
09:10 10.9 °C 7.6 °C 1022.7 hPa North 3.2 km/h 9.7 km/h 80% 0.0 mm 248.40 W/m2 CLR
09:15 11.2 °C 7.7 °C 1022.8 hPa North 3.2 km/h 8.0 km/h 79% 0.0 mm 274.80 W/m2 CLR
09:20 11.3 °C 7.8 °C 1022.8 hPa North 3.2 km/h 9.7 km/h 79% 0.0 mm 295.20 W/m2 CLR
09:25 11.6 °C 7.8 °C 1022.9 hPa NNW 4.8 km/h 12.9 km/h 78% 0.0 mm 316.80 W/m2 CLR
09:30 11.8 °C 8.1 °C 1022.9 hPa North 4.8 km/h 12.9 km/h 78% 0.0 mm 333.60 W/m2 CLR
09:35 11.9 °C 8.1 °C 1022.9 hPa NNW 8.0 km/h 14.5 km/h 77% 0.0 mm 352.80 W/m2 CLR
09:40 12.2 °C 8.3 °C 1023.0 hPa North 3.2 km/h 8.0 km/h 77% 0.0 mm 373.20 W/m2 CLR
09:45 12.4 °C 8.3 °C 1023.1 hPa North 4.8 km/h 11.3 km/h 76% 0.0 mm 390.00 W/m2 CLR
09:50 12.6 °C 8.3 °C 1023.1 hPa North 8.0 km/h 19.3 km/h 75% 0.0 mm 414.00 W/m2 CLR
09:55 12.8 °C 8.4 °C 1023.1 hPa North 9.7 km/h 16.1 km/h 75% 0.0 mm 432.00 W/m2 CLR
10:00 12.9 °C 8.4 °C 1023.1 hPa North 9.7 km/h 16.1 km/h 74% 0.0 mm 447.60 W/m2 CLR
10:05 13.1 °C 8.3 °C 1023.1 hPa North 8.0 km/h 14.5 km/h 73% 0.0 mm 465.60 W/m2 CLR
10:10 13.2 °C 8.4 °C 1023.1 hPa North 4.8 km/h 19.3 km/h 73% 0.0 mm 487.20 W/m2 CLR
10:15 13.3 °C 8.4 °C 1023.1 hPa North 11.3 km/h 19.3 km/h 72% 0.0 mm 504.00 W/m2 CLR
10:20 13.5 °C 8.3 °C 1023.1 hPa NNW 8.0 km/h 14.5 km/h 71% 0.0 mm 520.80 W/m2 CLR
10:25 13.7 °C 8.5 °C 1023.2 hPa NNE 9.7 km/h 16.1 km/h 71% 0.0 mm 535.20 W/m2 CLR
10:35 13.8 °C 8.2 °C 1023.3 hPa North 4.8 km/h 19.3 km/h 69% 0.0 mm 571.20 W/m2 CLR
10:40 13.9 °C 8.2 °C 1023.4 hPa North 9.7 km/h 19.3 km/h 68% 0.0 mm 588.00 W/m2 CLR
10:45 14.1 °C 8.1 °C 1023.4 hPa North 8.0 km/h 16.1 km/h 67% 0.0 mm 604.80 W/m2 CLR
10:50 14.3 °C 8.0 °C 1023.4 hPa North 8.0 km/h 19.3 km/h 66% 0.0 mm 620.40 W/m2 CLR
10:55 14.4 °C 7.9 °C 1023.4 hPa North 8.0 km/h 19.3 km/h 65% 0.0 mm 634.80 W/m2 CLR
11:00 14.7 °C 8.2 °C 1023.4 hPa North 9.7 km/h 16.1 km/h 65% 0.0 mm 654.00 W/m2 CLR
11:05 14.9 °C 8.2 °C 1023.4 hPa NNE 8.0 km/h 14.5 km/h 64% 0.0 mm 670.80 W/m2 CLR
11:10 15.1 °C 8.1 °C 1023.5 hPa NNE 9.7 km/h 19.3 km/h 63% 0.0 mm 679.20 W/m2 CLR
11:15 15.2 °C 8.0 °C 1023.5 hPa NNE 8.0 km/h 19.3 km/h 62% 0.0 mm 693.60 W/m2 CLR
11:20 15.4 °C 8.1 °C 1023.6 hPa NNE 8.0 km/h 14.5 km/h 62% 0.0 mm 709.20 W/m2 CLR
11:25 15.5 °C 7.8 °C 1023.6 hPa North 8.0 km/h 14.5 km/h 60% 0.0 mm 717.60 W/m2 CLR
11:30 15.7 °C 8.2 °C 1023.7 hPa North 8.0 km/h 16.1 km/h 61% 0.0 mm 738.00 W/m2 CLR
11:35 15.9 °C 8.2 °C 1023.7 hPa NNE 3.2 km/h 9.7 km/h 60% 0.0 mm 754.80 W/m2 CLR
11:40 16.2 °C 8.2 °C 1023.8 hPa NNE 3.2 km/h 11.3 km/h 59% 0.0 mm 765.60 W/m2 CLR
11:45 16.3 °C 8.1 °C 1023.8 hPa NNE 1.6 km/h 11.3 km/h 58% 0.0 mm 763.20 W/m2 CLR
11:50 16.6 °C 8.3 °C 1023.7 hPa NNE 4.8 km/h 14.5 km/h 58% 0.0 mm 796.80 W/m2 CLR
Juneau County Weather
Compliments of Weather Underground - 12.5 mb

Tiempo pasado